Peoria, IL

1:00 PM CST on December 02, 2016 (GMT -0600)
Greater Peoria Regional

Weather History for KPIA - June, 2012

Change the Weather History Date:

Sunday, June 10, 2012

  Actual Average Record
Temperature  
Mean Temperature 78 °F 70 °F  
Max Temperature 88 °F 81 °F 100 °F (1911)
Min Temperature 68 °F 60 °F 42 °F (1988)
Degree Days  
Heating Degree Days 0 1  
Month to date heating degree days 10 13  
Since 1 June heating degree days 10 13  
Since 1 July heating degree days 4593 5826  
Cooling Degree Days 13 6  
Month to date cooling degree days 37 51  
Year to date cooling degree days 230 132  
Since 1 June cooling degree days 37 51  
Growing Degree Days 28 (Base 50)    
Moisture  
Dew Point 60 °F    
Average Humidity 54    
Maximum Humidity 68    
Minimum Humidity 39    
Precipitation  
Precipitation 0.00 in 0.11 in 2.54 in (1905)
Month to date precipitation 0.45 1.19  
Year to date precipitation 9.86 15.52  
Snow  
Snow 0.00 in 0.00 in 0.00 in ()
Month to date snowfall 0.0 0.0  
Since 1 June snowfall 0.0 0.0  
Since 1 July snowfall 11.5 24.6  
Snow Depth 0.00 in    
Sea Level Pressure  
Sea Level Pressure 29.88 in    
Wind  
Wind Speed 11 mph (South)    
Max Wind Speed 24 mph    
Max Gust Speed 31 mph    
Visibility 10 miles    
Events      
T = Trace of Precipitation, MM = Missing Value Source: NWS Daily Summary

Daily Weather History Graph

Daily Weather History Graph

Search for Another Location

Airport or City:

Trip Planner

Search our weather history database for the weather conditions in past years. The results will help you decide how hot, cold, wet, or windy it might be!

Date:

Astronomy

Jun. 10, 2012 Rise Set
Actual Time 5:27 AM CDT 8:29 PM CDT
Civil Twilight 4:54 AM CDT 9:02 PM CDT
Nautical Twilight 4:11 AM CDT 9:44 PM CDT
Astronomical Twilight 3:22 AM CDT 10:34 PM CDT
Moon 12:20 AM CDT (6/10) 12:17 PM CDT (6/10)
Length of Visible Light 16h 08m
Length of Day
15h 02m
Waning Gibbous, 58% of the Moon is Illuminated
Jun 10
Waning Gibbous
Jun 11
Last Quarter
Jun 19
New
Jun 26
First Quarter
Jul 3
Full

Hourly Weather History & Observations

Time (CDT) Temp. Heat Index Dew Point Humidity Pressure Visibility Wind Dir Wind Speed Gust Speed Precip Events Conditions
12:54 AM 75.0 °F - 57.9 °F 55% 29.87 in 10.0 mi South 10.4 mph - N/A   Clear
1:54 AM 73.0 °F - 59.0 °F 61% 29.87 in 10.0 mi South 8.1 mph - N/A   Clear
2:54 AM 71.1 °F - 57.9 °F 63% 29.88 in 10.0 mi South 6.9 mph - N/A   Clear
3:54 AM 70.0 °F - 57.0 °F 63% 29.88 in 10.0 mi South 6.9 mph - N/A   Clear
4:54 AM 69.1 °F - 57.0 °F 65% 29.89 in 10.0 mi South 8.1 mph - N/A   Clear
5:54 AM 68.0 °F - 57.0 °F 68% 29.90 in 10.0 mi South 6.9 mph - N/A   Clear
6:54 AM 70.0 °F - 57.9 °F 65% 29.91 in 10.0 mi South 8.1 mph - N/A   Clear
7:54 AM 73.9 °F - 59.0 °F 59% 29.92 in 10.0 mi South 8.1 mph - N/A   Clear
8:54 AM 77.0 °F - 61.0 °F 58% 29.94 in 10.0 mi South 9.2 mph - N/A   Clear
9:54 AM 80.1 °F 81.5 °F 63.0 °F 56% 29.93 in 10.0 mi SSW 11.5 mph 18.4 mph N/A   Mostly Cloudy
10:54 AM 82.9 °F 83.3 °F 61.0 °F 47% 29.93 in 10.0 mi SSE 13.8 mph 23.0 mph N/A   Mostly Cloudy
11:54 AM 84.0 °F 84.0 °F 60.1 °F 44% 29.93 in 10.0 mi SSE 16.1 mph 26.5 mph N/A   Scattered Clouds
12:54 PM 84.0 °F 84.4 °F 61.0 °F 46% 29.91 in 10.0 mi SSE 11.5 mph 20.7 mph N/A   Clear
1:54 PM 82.0 °F 83.0 °F 62.1 °F 51% 29.90 in 10.0 mi South 16.1 mph 21.9 mph N/A   Mostly Cloudy
2:54 PM 84.9 °F 85.4 °F 62.1 °F 46% 29.88 in 10.0 mi SE 11.5 mph 16.1 mph N/A   Scattered Clouds
3:54 PM 87.1 °F 86.5 °F 59.0 °F 39% 29.86 in 10.0 mi SSE 18.4 mph 26.5 mph N/A   Partly Cloudy
4:54 PM 87.1 °F 86.5 °F 59.0 °F 39% 29.85 in 10.0 mi SSE 16.1 mph 20.7 mph N/A   Mostly Cloudy
5:54 PM 86.0 °F 85.4 °F 59.0 °F 40% 29.85 in 10.0 mi South 13.8 mph 23.0 mph N/A   Clear
6:54 PM 84.0 °F 84.0 °F 60.1 °F 44% 29.84 in 10.0 mi South 13.8 mph - N/A   Partly Cloudy
7:54 PM 82.9 °F 83.2 °F 60.1 °F 46% 29.83 in 10.0 mi South 12.7 mph 19.6 mph N/A   Partly Cloudy
8:54 PM 81.0 °F 81.7 °F 61.0 °F 50% 29.83 in 10.0 mi SSE 15.0 mph - N/A   Clear
9:54 PM 79.0 °F - 62.1 °F 56% 29.86 in 10.0 mi South 9.2 mph - N/A   Clear
10:54 PM 77.0 °F - 62.1 °F 60% 29.86 in 10.0 mi South 10.4 mph - N/A   Clear
11:54 PM 75.0 °F - 61.0 °F 62% 29.88 in 10.0 mi SSW 6.9 mph - N/A   Partly Cloudy